This is the latest recevied weather packets stored in our database for station/object KE6AFE. If no packets are shown the sender has not sent any weather packets the latest 10 day(s).
| Time | Temp. | Humidity | Pressure | Rain* | Wind** | Luminosity | Snow |
|---|---|---|---|---|---|---|---|
| 1777782146 | 15.56° C | 65% | 1012.7 hPa | 0 mm | - | - | - |
| 1777781536 | 15.56° C | 65% | 1012.6 hPa | 0 mm | - | - | - |
| 1777780926 | 15.56° C | 64% | 1012.4 hPa | 0 mm | - | - | - |
| 1777780316 | 15.56° C | 64% | 1012.3 hPa | 0 mm | - | - | - |
| 1777779706 | 15.56° C | 64% | 1012.2 hPa | 0 mm | - | - | - |
| 1777779096 | 16.11° C | 63% | 1012.1 hPa | 0 mm | - | - | - |
| 1777778486 | 16.11° C | 63% | 1012 hPa | 0 mm | - | - | - |
| 1777777876 | 16.11° C | 62% | 1011.9 hPa | 0 mm | - | - | - |
| 1777777266 | 16.67° C | 61% | 1011.9 hPa | 0 mm | - | - | - |
| 1777776656 | 16.67° C | 60% | 1011.9 hPa | 0 mm | - | - | - |
| 1777776046 | 17.22° C | 60% | 1011.8 hPa | 0 mm | - | - | - |
| 1777775436 | 17.78° C | 59% | 1011.7 hPa | 0 mm | - | - | - |
| 1777774826 | 17.78° C | 58% | 1011.8 hPa | 0 mm | - | - | - |
| 1777774216 | 18.33° C | 58% | 1011.7 hPa | 0 mm | - | - | - |
| 1777773606 | 18.33° C | 57% | 1011.7 hPa | 0 mm | - | - | - |
| 1777772996 | 18.33° C | 58% | 1011.8 hPa | 0 mm | - | - | - |
| 1777772386 | 18.89° C | 57% | 1011.8 hPa | 0 mm | - | - | - |
| 1777771776 | 18.89° C | 56% | 1011.9 hPa | 0 mm | - | - | - |
| 1777771166 | 18.89° C | 56% | 1012 hPa | 0 mm | - | - | - |
| 1777770556 | 19.44° C | 56% | 1011.9 hPa | 0 mm | - | - | - |
| 1777769946 | 19.44° C | 56% | 1012 hPa | 0 mm | - | - | - |
| 1777769336 | 19.44° C | 55% | 1012 hPa | 0 mm | - | - | - |
| 1777768726 | 20° C | 54% | 1012 hPa | 0 mm | - | - | - |
| 1777768116 | 20° C | 54% | 1012 hPa | 0 mm | - | - | - |
| 1777767506 | 20° C | 54% | 1012 hPa | 0 mm | - | - | - |
* Rain latest hour (hover to see other rain measurements)
** Current wind speed in m/s (hover to see current wind gust speed)